GEFSCGP_500_meanwind_006.txt.gz
Wind_Speed
21 25 28 30 32 34 36 38 39 40 41 41 41 39 38 40 40 39 39 40 36 30 26 25 25 24 23 20 20 21 21 21 20 18 18 18 19 19 18 16 15 15 14 17
17 22 25 28 31 33 36 38 40 41 42 42 41 39 38 40 40 40 40 38 33 31 31 32 30 28 26 22 20 21 23 24 24 23 22 23 21 19 17 15 16 16 17 20
15 18 21 25 28 32 35 38 41 43 44 43 42 39 35 37 39 39 38 39 39 37 37 37 35 31 27 25 23 23 25 25 25 24 23 20 16 14 14 15 17 19 21 23
9 12 15 19 22 26 29 32 37 41 43 43 42 40 33 35 36 36 35 36 38 38 39 39 37 33 31 30 28 27 27 25 25 25 22 18 14 13 14 17 20 22 23 25
12 15 18 22 26 29 30 29 29 30 34 37 37 37 32 33 33 31 30 29 30 33 36 38 37 34 33 31 30 30 27 24 23 22 21 18 17 16 18 19 22 24 24 25
17 21 25 28 32 34 34 33 29 26 26 27 28 29 28 30 30 29 28 26 26 26 31 36 38 37 37 34 33 33 26 22 20 19 17 17 17 19 20 21 22 25 25 24
20 24 30 34 37 38 38 35 32 29 26 23 20 21 22 23 25 26 28 27 25 23 23 28 35 39 39 39 38 33 26 21 16 14 15 16 17 20 21 22 23 24 25 24
25 28 33 38 43 45 42 38 34 32 28 23 18 20 18 17 17 17 19 22 22 21 20 22 27 34 37 39 37 31 21 14 10 11 15 16 19 20 21 23 24 25 25 25
33 35 39 45 48 48 44 38 34 33 30 25 22 22 22 20 18 15 14 16 19 20 21 20 23 28 31 32 28 22 12 7 8 12 16 18 19 21 23 24 24 25 25 24
42 46 49 51 49 46 43 36 29 29 28 24 21 20 21 24 22 17 16 17 19 20 20 21 25 27 25 24 19 13 7 7 11 15 18 19 20 22 24 25 25 25 24 24
49 53 53 49 41 33 28 26 26 26 25 22 20 20 19 21 23 21 18 17 18 18 20 20 20 19 16 15 13 8 7 9 13 16 18 20 22 23 24 25 26 26 26 25
50 50 44 34 25 17 14 16 21 24 22 22 19 17 18 16 17 22 20 17 15 15 14 13 12 7 5 4 4 5 6 10 14 18 22 25 26 25 25 24 25 25 26 25
45 38 30 20 11 6 4 6 11 14 14 17 17 14 9 10 8 11 12 10 10 11 12 12 11 7 2 3 4 6 10 14 17 20 23 25 26 24 21 20 20 20 22 22
36 29 22 13 5 6 7 5 5 5 8 12 12 9 6 7 7 9 10 11 11 13 14 10 5 3 4 5 6 10 14 17 18 19 21 21 22 19 17 18 20 19 19 19
26 20 14 9 9 10 11 12 9 8 9 11 8 4 5 9 12 14 16 16 15 14 13 9 5 6 8 9 9 11 15 18 19 20 20 22 20 17 16 18 20 20 20 20
21 17 13 12 13 13 14 13 11 9 8 8 7 5 4 3 7 10 13 15 18 17 16 14 12 12 14 15 14 15 17 19 20 21 20 20 19 17 17 18 19 19 19 20
23 21 17 16 16 16 17 17 15 14 13 12 11 12 11 7 3 4 9 11 13 16 19 21 19 16 16 17 18 19 19 19 19 18 18 18 19 19 19 20 20 21 21 20
28 26 24 23 22 20 20 20 20 19 17 14 13 13 13 11 8 7 5 4 6 8 10 12 13 13 14 16 17 18 17 16 16 17 18 19 20 20 20 20 20 21 22 23
32 30 27 25 23 23 21 20 20 21 20 17 13 12 13 13 11 11 10 8 8 8 5 4 5 7 8 9 11 12 14 15 16 18 19 20 21 21 20 19 19 21 23 22
30 29 27 25 23 23 21 17 16 17 18 17 13 11 12 13 13 13 12 9 8 9 7 4 2 2 4 6 9 12 14 15 16 17 19 21 21 20 19 19 21 22 22 21
26 26 25 24 22 21 19 16 13 13 15 15 13 11 14 16 15 15 14 11 9 8 6 3 2 3 6 9 12 14 15 16 17 18 19 20 19 19 20 20 20 20 20 19
22 23 23 21 19 17 15 13 12 12 14 14 14 14 15 16 15 14 12 10 8 7 6 6 7 9 11 13 14 15 16 15 16 17 17 17 17 18 19 18 17 17 17 17
20 19 19 17 15 14 12 11 10 10 10 11 12 13 13 13 13 12 12 10 10 10 11 11 12 12 13 13 14 15 16 16 17 17 16 16 17 18 18 17 16 16 17 18
22 19 16 14 11 8 7 7 7 7 6 6 7 9 10 10 10 10 10 9 10 12 13 13 13 13 14 14 15 16 17 18 18 17 17 17 18 18 18 17 16 17 18 18
25 22 19 15 11 7 3 1 2 4 4 4 5 5 6 7 7 7 7 8 9 12 13 12 13 14 14 15 15 16 17 17 16 15 16 16 17 17 16 15 15 15 16 17
26 26 24 20 16 10 6 2 2 3 3 4 4 4 3 3 4 5 6 7 9 11 12 13 14 14 14 15 17 18 17 15 14 14 14 14 15 15 15 14 13 14 15 15

GEFSCGP_500_meanwind_012.txt.gz
Wind_Speed
23 25 28 31 33 35 37 38 39 40 40 40 40 40 40 42 44 43 42 41 39 35 32 30 28 26 26 26 27 27 26 26 26 25 25 23 21 20 21 21 21 20 21 21
20 24 26 29 32 33 35 36 37 38 39 40 40 39 41 43 44 44 43 42 41 39 36 33 31 29 27 27 28 30 29 29 29 29 27 26 25 24 23 22 22 22 21 21
21 23 26 28 31 32 34 35 36 38 39 39 40 39 40 42 44 44 44 43 42 41 39 36 33 31 30 29 30 32 33 34 34 33 32 31 29 27 25 23 22 22 22 21
20 22 25 28 31 33 34 35 36 37 36 36 37 38 36 37 39 41 41 42 42 41 39 38 35 34 34 34 35 36 36 37 39 39 36 33 29 27 25 24 23 23 24 24
24 27 29 32 35 37 38 38 39 39 38 37 35 38 37 36 35 35 36 37 39 39 38 37 36 35 36 38 38 39 38 40 41 39 36 33 31 28 26 24 24 25 26 25
31 35 37 39 41 42 43 43 44 44 43 41 37 38 38 35 32 30 29 30 33 35 36 35 35 36 38 40 41 41 40 44 44 40 37 34 31 28 25 23 23 24 24 24
36 40 43 45 46 46 47 47 48 48 47 44 39 37 36 31 27 24 23 24 27 30 33 35 36 37 39 40 42 43 43 46 44 40 35 33 30 26 22 21 22 23 24 24
42 44 47 49 50 50 49 49 47 47 46 42 37 35 33 27 24 21 20 21 23 27 30 34 37 38 39 39 41 41 44 44 41 40 37 32 27 23 20 19 20 22 23 24
46 46 47 48 48 47 46 44 43 41 38 35 31 31 28 24 23 22 21 20 21 24 28 32 35 37 37 38 38 39 42 39 37 35 30 27 22 18 17 19 20 22 23 25
40 37 35 34 33 31 30 26 22 22 22 21 22 23 22 22 22 21 21 20 19 21 24 28 31 34 35 34 34 34 35 32 29 27 22 18 14 14 17 19 20 22 24 26
29 25 23 21 19 17 15 13 11 10 11 12 13 14 15 15 18 17 16 18 17 16 17 20 24 27 27 28 26 25 25 22 20 17 14 12 13 15 17 19 22 23 25 26
27 25 23 21 19 16 14 11 7 3 1 4 5 5 7 9 11 13 13 14 14 11 10 10 10 9 8 7 9 11 12 12 11 10 10 12 13 15 17 19 21 21 21 22
28 27 24 23 23 21 18 16 12 10 8 6 3 1 2 4 6 7 8 8 8 6 4 3 4 4 5 7 8 7 5 5 5 7 10 12 13 14 16 17 17 18 18 18
29 27 26 25 24 23 22 20 17 14 12 9 6 5 2 1 1 3 5 6 7 5 3 2 5 6 6 5 4 2 2 4 7 9 11 13 13 13 14 14 15 16 17 18
29 28 27 26 24 24 22 20 17 16 14 12 10 9 7 5 4 5 5 6 7 7 5 4 4 5 4 3 2 3 6 8 11 12 14 14 13 13 12 14 16 17 18 19
29 27 27 26 25 24 23 20 19 17 16 16 15 14 12 10 8 6 6 6 6 7 6 5 3 2 2 2 5 7 10 11 13 14 14 13 13 13 14 17 19 19 20 20
26 26 26 25 24 24 23 21 19 18 18 19 19 19 16 14 12 11 9 8 6 4 4 3 3 4 5 6 7 10 11 12 13 13 13 14 15 16 18 19 20 21 21 21
24 23 23 23 23 22 22 20 17 15 14 16 17 19 19 18 16 16 16 15 11 8 5 3 2 3 3 5 6 7 9 10 11 13 14 16 17 18 19 20 21 21 21 21
23 22 21 21 21 22 21 20 17 13 12 13 15 16 18 18 19 19 19 18 16 13 10 8 8 7 6 6 7 8 9 11 12 14 16 17 18 19 20 20 20 20 20 20
22 22 20 20 19 19 19 18 17 15 11 11 12 14 15 18 18 17 18 17 15 13 11 10 9 8 8 8 9 10 11 13 14 15 16 17 18 19 19 19 19 19 19 19
23 22 21 19 19 18 17 16 16 13 11 10 10 11 13 14 14 14 14 14 13 11 10 9 9 8 8 9 10 11 12 13 14 16 17 18 19 19 20 20 20 20 20 19
26 24 23 20 19 18 15 13 13 11 10 8 8 9 10 10 10 11 11 12 12 11 11 11 10 10 10 11 12 13 15 16 17 17 17 18 19 19 20 21 20 19 18 17
27 27 25 23 21 18 14 11 10 8 6 5 5 6 6 7 8 9 10 11 12 12 13 12 12 12 13 14 16 17 18 18 18 18 18 18 19 19 19 18 17 16 15 14
28 29 28 27 25 20 15 11 9 7 4 3 2 2 3 5 6 7 9 11 12 13 13 13 13 13 14 16 17 18 18 18 19 19 19 19 18 17 17 15 14 13 12 12
28 30 30 30 29 25 20 14 9 6 4 2 1 1 1 3 5 6 8 10 11 13 14 14 14 14 14 15 16 16 17 17 19 20 20 20 18 17 16 14 13 12 11 11
25 29 31 32 32 30 25 17 11 6 4 3 2 2 3 4 5 6 8 9 10 12 14 14 14 14 14 15 15 15 15 17 19 20 20 20 19 18 17 16 14 13 13 12

GEFSCGP_500_meanwind_018.txt.gz
Wind_Speed
24 26 28 30 32 34 37 38 39 41 41 41 42 44 44 43 43 42 40 39 38 37 36 35 35 35 35 35 33 32 32 31 30 30 29 27 26 25 27 28 29 29 28 27
23 26 28 31 33 35 37 39 41 42 43 42 43 44 43 43 42 41 40 38 37 36 36 35 36 37 37 37 37 36 35 34 34 34 34 32 30 29 30 31 33 33 32 31
25 28 31 33 35 37 39 40 41 42 42 42 42 42 41 40 39 37 36 35 34 33 33 34 35 37 39 39 40 39 39 37 37 38 39 36 34 32 32 34 34 35 35 34
27 30 33 36 38 39 42 42 42 42 41 41 40 39 39 35 34 33 32 31 30 30 30 31 33 36 39 41 42 42 41 40 40 40 41 40 39 38 35 35 35 35 36 36
31 34 37 40 42 43 45 45 45 44 43 43 41 40 40 36 34 34 33 32 32 31 31 31 32 35 38 41 44 44 43 43 43 43 44 44 46 45 41 39 37 36 36 35
29 30 32 35 38 40 42 43 44 45 44 44 41 40 41 40 36 36 36 35 35 35 35 34 34 35 37 41 44 46 46 45 45 45 45 47 49 48 46 43 41 40 39 37
26 26 27 28 29 30 33 35 37 37 36 36 37 37 40 38 36 35 35 35 36 36 36 35 35 36 38 40 43 46 46 46 46 46 47 49 50 51 49 47 45 43 41 39
25 26 27 26 25 25 24 23 24 24 24 25 26 28 31 30 31 31 31 32 32 32 32 32 33 34 36 38 40 43 44 44 45 46 47 48 49 48 46 44 42 39 38 36
26 26 26 26 24 22 20 17 14 12 12 14 18 20 21 21 23 25 25 26 26 26 27 28 29 30 31 32 34 36 39 41 42 42 45 45 44 43 41 40 37 36 32 28
26 26 26 26 25 23 20 17 13 8 4 2 6 10 12 14 15 18 19 19 18 17 19 20 21 22 22 23 25 29 31 34 35 35 37 39 39 35 31 28 27 25 20 15
29 29 28 26 25 24 21 19 17 15 10 5 3 1 3 6 8 10 10 10 9 10 10 11 12 14 15 17 18 21 23 25 26 26 25 24 23 20 17 16 14 12 10 11
30 30 29 27 26 25 24 22 19 17 13 10 8 6 3 1 3 6 7 7 6 5 4 3 3 3 5 7 8 10 11 11 11 11 11 10 10 8 7 6 6 6 8 11
29 30 30 29 27 26 24 23 21 18 14 11 9 7 5 4 3 6 8 9 9 7 5 4 5 5 4 4 5 6 6 5 5 5 4 3 3 3 3 3 4 6 8 10
28 29 29 28 27 26 26 24 23 20 16 13 12 10 9 9 9 9 10 11 11 8 6 6 7 6 6 6 6 6 7 6 5 4 3 2 2 0 1 3 4 6 8 10
28 28 28 28 27 26 25 25 24 22 20 18 16 16 15 14 13 12 11 11 9 7 6 5 5 6 5 7 7 7 7 6 5 4 3 2 1 2 3 5 7 8 11 13
28 28 28 27 26 25 24 24 24 22 22 20 19 18 18 15 14 12 11 11 9 6 5 5 4 4 5 7 7 8 7 7 6 6 5 5 5 5 7 8 10 12 14 16
29 27 26 26 25 24 23 21 21 21 21 20 19 19 17 16 14 12 11 9 7 6 5 5 6 5 7 8 8 8 8 7 6 6 6 7 8 9 10 12 13 15 16 17
30 28 25 24 23 23 21 19 18 19 19 19 20 19 18 18 17 14 12 11 10 9 10 10 9 9 9 9 9 9 9 9 9 9 9 10 11 12 13 15 16 17 18 19
32 30 27 25 22 21 20 18 17 17 18 19 19 19 19 18 18 17 15 14 13 12 12 11 11 10 10 10 10 10 10 11 11 12 12 12 13 14 14 15 17 18 19 20
32 32 30 26 23 21 19 17 15 15 16 16 16 16 17 18 18 17 16 15 14 13 12 12 12 12 11 12 12 12 12 12 12 12 12 12 13 13 14 15 17 18 19 19
32 33 32 29 24 21 18 16 14 13 13 14 14 15 16 17 16 15 15 14 14 14 13 13 13 13 13 13 13 13 13 13 13 13 13 13 13 13 14 15 16 16 17 18
31 33 34 32 27 22 18 15 13 12 11 11 12 13 14 14 14 14 14 14 14 14 14 14 14 14 14 15 15 15 15 15 15 15 15 15 15 15 16 16 15 15 14 15
28 31 33 34 29 24 20 16 13 11 10 9 10 11 12 12 12 12 13 13 14 15 15 16 16 16 17 17 17 16 16 16 16 17 17 17 17 17 17 17 16 15 15 15
24 27 30 32 32 27 22 17 14 12 10 8 8 9 9 10 11 11 11 12 14 14 15 16 17 17 18 18 17 17 17 17 17 18 18 19 19 19 18 18 18 17 17 17
20 23 26 29 31 29 25 19 15 12 10 8 7 7 8 8 9 10 10 11 12 14 15 16 16 17 18 18 18 18 18 17 17 18 18 19 19 20 20 19 19 20 19 19
17 19 22 25 28 28 26 22 17 14 11 9 8 7 7 7 7 8 9 10 11 12 14 14 15 16 17 17 17 18 18 17 17 17 18 18 19 20 20 20 21 21 21 21

GEFSCGP_500_meanwind_024.txt.gz
Wind_Speed
18 20 23 25 27 28 30 32 33 35 40 43 44 44 45 46 44 42 44 44 44 44 42 41 39 38 37 36 35 34 34 32 31 30 30 31 32 30 29 28 27 28 28 28
19 22 23 24 27 30 32 34 36 38 40 44 46 45 45 47 46 45 44 45 45 44 43 42 40 39 38 38 37 36 35 34 34 33 33 35 36 35 32 30 29 29 30 29
18 22 23 26 28 29 30 34 37 38 39 41 42 43 40 40 43 44 43 43 43 41 40 39 37 37 37 36 36 36 35 34 34 34 35 37 37 36 35 33 31 31 32 32
16 17 19 21 24 25 26 30 32 33 35 36 37 38 32 33 37 40 40 39 36 35 35 34 34 33 33 33 33 33 32 33 33 34 35 37 39 39 38 38 37 36 35 35
16 18 19 22 24 25 26 28 30 31 33 33 31 31 30 33 37 36 35 34 32 31 31 30 30 30 30 30 30 30 30 31 32 34 35 37 40 40 40 41 41 40 39 38
16 18 20 23 24 26 28 28 29 29 26 23 21 22 28 34 37 36 33 32 31 30 30 30 30 30 30 30 30 30 31 32 33 35 37 38 39 42 44 45 44 42 41 41
19 18 20 22 24 25 26 27 27 22 17 16 18 20 29 33 36 38 37 36 34 32 32 31 31 32 32 32 32 33 33 35 36 38 39 40 40 42 44 45 45 43 42 40
21 22 21 22 23 24 24 25 24 21 17 13 15 17 21 26 31 34 35 35 34 34 33 32 32 32 32 33 34 35 36 38 39 40 41 41 41 41 43 43 43 41 40 38
20 20 21 22 23 23 24 23 22 18 15 11 12 14 16 20 22 25 27 27 28 28 28 28 29 30 30 31 32 34 35 37 37 37 37 37 37 38 39 39 39 39 38 38
20 19 20 22 23 24 24 23 21 17 15 11 11 13 15 15 16 17 18 20 21 21 21 22 23 24 25 26 28 30 30 31 30 30 31 31 31 33 34 35 35 35 36 36
21 21 20 21 24 24 23 23 21 18 16 14 13 14 15 13 11 7 7 10 12 14 14 15 15 16 17 18 20 22 23 23 23 24 25 26 27 27 29 30 31 33 32 31
21 20 20 21 23 23 24 23 21 20 18 17 16 15 14 12 9 6 4 3 5 7 7 6 6 6 7 9 10 12 13 15 17 17 17 17 18 18 18 19 19 17 16 15
22 21 22 24 25 25 23 22 22 22 21 19 18 17 16 13 11 9 7 3 3 4 4 3 3 3 4 3 3 3 2 3 3 3 4 5 5 6 6 6 6 6 6 6
23 22 21 21 21 21 21 23 23 22 21 21 20 19 19 17 15 13 11 10 11 10 10 10 10 10 10 9 9 9 9 8 8 7 5 5 4 4 3 2 0 1 1 2
25 23 21 19 20 20 20 22 23 23 23 22 21 20 19 19 17 16 16 15 15 15 14 14 15 15 14 14 14 14 14 13 12 11 9 8 7 6 5 5 4 4 5 6
28 25 22 21 21 20 20 21 22 22 23 24 22 21 21 20 20 19 18 18 18 18 17 16 16 16 16 16 15 15 14 13 12 11 10 9 8 7 7 7 7 8 9 10
29 28 26 23 20 19 21 21 21 21 21 22 22 22 22 22 22 22 22 20 20 19 19 18 17 17 16 16 15 14 13 13 12 10 10 9 8 8 8 9 10 11 12 13
31 29 26 23 21 20 19 18 18 18 19 20 20 20 20 20 21 21 22 21 20 19 19 18 17 17 16 16 15 15 14 14 13 12 11 10 10 10 10 11 11 12 14 15
30 30 28 25 21 18 16 16 16 17 17 18 19 19 19 18 19 20 20 19 19 18 18 18 17 16 16 16 16 16 16 15 15 14 14 13 13 12 12 12 13 14 14 15
28 29 28 26 23 19 16 14 14 14 15 16 17 17 17 17 19 20 19 19 18 18 18 18 17 17 17 17 17 17 17 17 17 17 16 16 15 15 15 15 15 15 15 15
25 28 28 27 24 22 18 15 13 13 14 14 14 15 15 16 17 18 18 18 18 18 18 18 18 18 18 18 18 18 19 19 19 19 19 19 19 19 18 18 18 17 16 16
23 25 27 26 25 22 20 16 14 13 12 13 13 13 13 14 15 16 16 17 17 16 17 17 18 18 18 18 18 19 19 19 19 20 20 21 21 21 21 21 21 20 18 17
19 22 24 25 24 23 22 18 15 13 12 12 12 12 12 13 14 14 15 15 15 15 16 16 17 17 17 18 18 18 18 18 19 19 20 21 22 22 22 22 22 21 21 19
15 18 20 22 23 22 22 20 17 14 12 12 11 11 11 11 12 12 13 13 13 14 14 15 15 16 16 17 17 17 17 18 18 19 20 22 23 23 24 23 22 22 22 21
12 14 16 18 20 21 20 20 18 16 13 12 11 10 10 10 10 10 11 11 12 12 12 13 13 14 15 16 17 17 17 17 18 19 20 22 23 24 25 25 24 23 23 23
10 11 12 14 16 18 18 18 18 17 15 13 11 10 10 9 8 8 8 9 10 10 10 11 12 13 14 15 16 17 17 18 19 20 21 22 23 24 25 26 25 24 24 25

GEFSCGP_500_meanwind_030.txt.gz
Wind_Speed
16 18 19 19 20 21 22 22 23 25 27 29 31 34 37 39 42 43 43 43 42 40 39 39 40 40 40 40 39 38 36 35 34 32 31 30 30 31 31 32 32 31 29 28
14 15 17 17 18 20 21 22 22 24 26 28 30 33 35 38 40 42 44 45 44 41 40 41 41 42 42 42 42 42 41 39 37 35 34 33 33 33 34 35 35 33 31 30
13 14 15 17 18 19 21 22 22 23 24 28 31 33 34 36 38 40 41 43 45 44 43 41 41 42 43 43 42 42 42 40 39 38 36 35 35 34 35 36 36 35 32 31
12 14 16 17 17 18 20 22 23 24 25 26 29 32 33 35 37 39 41 42 42 42 42 40 40 42 42 43 42 42 41 40 39 38 37 37 36 35 35 36 35 34 32 30
12 14 16 17 18 19 20 21 23 23 23 25 26 29 30 30 31 34 37 39 38 35 35 36 38 39 39 39 40 40 40 40 39 38 38 37 36 35 34 34 34 33 32 32
12 15 16 18 18 19 20 21 22 21 21 22 23 24 25 24 25 27 30 32 32 32 31 29 30 34 33 34 35 36 37 38 38 38 37 37 36 35 34 34 34 34 33 32
11 14 16 18 19 19 19 20 19 19 19 19 19 20 21 21 22 23 24 25 26 27 27 27 26 26 27 29 31 33 35 36 37 37 36 36 36 35 34 34 35 36 35 35
13 14 16 17 18 17 17 17 16 16 16 16 17 17 19 19 20 20 20 20 20 20 21 19 20 22 25 27 29 31 33 34 35 36 36 36 36 36 36 37 37 37 37 37
16 16 17 18 17 16 16 16 16 15 15 15 15 15 16 16 17 17 16 14 13 13 13 14 16 18 22 25 27 29 31 33 35 35 36 37 37 38 39 39 38 38 38 37
17 16 17 18 17 16 16 17 17 15 15 15 15 15 15 14 13 12 11 10 10 8 9 11 12 13 15 18 21 24 26 28 31 33 35 36 37 37 37 36 36 35 33 32
18 17 17 17 16 15 17 17 17 15 15 15 15 16 17 16 15 14 12 11 9 8 6 4 6 7 8 10 13 16 17 19 22 24 27 29 29 29 29 29 29 28 27 27
20 19 18 17 17 17 17 17 16 16 16 16 16 17 18 18 17 16 15 14 13 11 9 6 3 2 2 2 3 5 7 8 10 12 14 16 17 18 18 17 17 16 16 17
22 20 19 18 18 18 17 17 17 17 17 17 18 18 19 19 18 18 17 16 15 14 13 12 10 8 7 6 5 4 4 3 2 2 3 4 5 5 6 6 6 7 8 8
23 21 20 19 18 18 18 19 19 19 18 18 19 19 19 19 19 19 19 19 18 17 16 14 14 13 11 11 10 10 9 9 8 8 7 7 5 4 3 2 2 2 3 4
24 22 21 19 18 18 19 20 20 20 20 20 20 20 19 19 20 20 20 20 20 19 19 18 17 17 16 15 14 14 13 13 12 11 10 9 8 7 6 5 4 4 5 5
25 23 21 18 18 18 19 20 20 20 20 20 20 20 20 19 20 20 20 20 20 19 19 19 18 18 17 17 16 16 15 15 14 13 12 11 10 9 8 8 8 8 9 10
23 24 22 20 18 18 19 20 20 20 20 20 20 20 20 20 19 20 20 20 20 20 19 19 19 19 19 18 18 18 17 17 16 15 15 14 13 12 11 10 10 10 11 12
22 24 23 21 19 19 19 19 19 19 19 19 19 20 20 20 19 20 20 20 20 20 20 20 20 20 20 20 20 20 19 19 19 18 17 16 15 14 13 12 12 12 13 14
20 22 23 22 20 19 19 19 18 18 18 18 18 19 19 19 19 20 21 21 21 21 21 21 21 21 21 21 20 20 20 20 19 19 18 18 17 16 16 15 14 14 14 14
18 20 21 22 20 19 18 18 18 17 17 17 17 17 18 18 19 21 21 22 22 22 22 22 21 21 21 21 20 20 20 20 20 20 19 19 19 18 17 17 16 15 15 14
14 16 18 20 20 19 18 18 18 17 17 17 16 16 17 17 18 19 20 21 21 21 21 21 21 20 20 20 19 20 20 20 20 20 20 20 20 20 19 18 18 17 16 15
11 13 15 17 18 18 18 17 17 17 16 16 16 16 16 16 17 17 17 18 19 19 19 19 19 19 19 19 19 19 20 20 21 21 22 22 22 21 21 20 20 20 18 18
8 11 13 14 16 17 17 17 17 17 16 15 15 15 14 14 15 15 15 16 17 17 17 18 18 19 19 19 19 19 19 20 21 21 22 23 23 24 23 22 22 22 22 20
6 7 9 10 12 14 15 16 16 17 16 15 14 14 13 13 13 13 13 13 14 15 15 16 17 18 18 19 18 18 19 20 20 21 21 22 23 24 24 24 24 24 24 24
4 4 6 7 9 11 12 14 15 16 15 15 14 13 13 12 11 11 11 11 12 12 13 14 15 16 17 18 18 18 18 19 20 20 20 20 22 23 23 23 24 25 25 26
5 5 5 5 6 8 9 11 12 13 14 14 13 13 12 12 10 9 9 10 10 10 11 12 13 15 16 16 17 17 17 18 20 20 20 19 20 21 22 23 23 24 25 26

GEFSCGP_500_meanwind_036.txt.gz
Wind_Speed
19 21 22 23 24 24 25 25 26 27 27 28 29 30 31 32 33 34 36 38 40 42 44 45 46 47 46 46 46 46 46 44 43 40 39 37 35 34 33 31 30 30 30 30
19 20 21 22 22 23 23 24 25 26 26 27 28 30 32 33 34 35 37 38 40 41 43 45 46 47 48 48 47 47 48 48 47 45 42 41 39 38 36 35 34 33 32 31
18 19 20 20 21 22 22 23 24 25 26 27 29 31 31 33 34 36 37 39 40 41 42 43 45 46 46 47 47 47 47 47 48 46 45 44 42 40 39 38 37 37 36 34
17 18 19 20 21 22 23 23 23 24 26 27 29 30 30 31 33 35 37 38 39 39 40 41 42 43 43 44 44 43 44 44 45 44 44 44 43 42 42 41 40 40 39 36
16 17 18 19 20 21 21 22 22 23 25 26 26 27 27 28 30 32 34 35 35 36 36 36 37 37 37 38 39 40 40 41 42 42 43 43 43 42 42 42 42 42 41 39
14 15 16 18 19 20 20 20 20 21 22 22 22 24 25 25 26 27 28 29 30 30 30 29 28 28 28 29 30 32 34 35 37 38 39 40 41 41 41 42 42 41 40 38
14 15 17 18 18 19 19 18 18 18 18 18 19 21 22 22 22 21 22 23 23 23 21 20 19 19 20 20 21 24 26 29 30 32 34 35 36 37 38 38 38 38 37 36
14 15 16 16 17 17 16 15 15 15 16 17 18 19 19 19 19 20 19 19 18 16 15 14 12 11 12 12 14 17 20 22 24 25 27 29 31 32 33 34 34 34 34 34
13 13 14 15 15 14 13 13 13 14 15 15 16 16 17 18 18 18 18 16 15 14 12 9 8 7 7 8 10 10 13 16 18 20 22 24 26 27 28 29 30 31 32 32
13 13 14 14 13 13 14 14 14 14 14 14 14 15 16 16 16 17 17 16 15 13 12 10 8 8 8 7 6 6 6 9 12 14 15 17 19 21 23 25 27 29 30 31
14 14 15 14 14 14 15 15 15 14 14 14 15 16 17 16 17 17 17 17 16 16 14 13 12 11 10 9 9 8 7 6 6 7 8 10 12 15 17 19 22 23 25 27
16 15 15 15 15 16 16 17 16 15 14 15 15 16 17 18 18 18 19 19 18 18 17 17 15 15 13 13 12 12 11 10 9 7 5 4 5 7 9 11 13 15 17 19
17 16 16 16 17 18 18 17 17 16 15 16 17 17 17 18 18 19 19 20 20 20 20 19 19 18 16 15 14 14 13 13 13 12 11 9 6 5 4 4 5 7 9 11
18 17 17 18 18 18 18 18 17 17 17 17 17 18 18 19 20 19 19 20 21 21 21 21 21 21 21 20 19 17 17 16 15 14 13 12 11 9 7 6 5 5 5 6
19 18 18 18 18 18 18 18 18 18 18 18 18 19 19 19 20 20 21 21 22 23 22 22 22 23 22 22 21 20 20 19 18 16 16 15 13 12 11 10 8 7 7 7
20 19 18 18 18 18 18 18 18 18 18 18 19 19 20 20 20 21 21 21 22 22 23 23 22 22 22 22 22 21 21 20 19 18 17 16 15 14 13 12 11 9 8 8
19 19 18 17 18 18 17 17 17 18 17 18 19 19 20 20 20 21 21 21 22 22 22 22 21 21 21 21 21 21 21 21 21 20 19 18 17 16 15 13 12 11 11 10
17 18 18 17 17 17 17 17 17 17 17 17 17 18 19 20 20 20 21 20 20 20 21 21 21 21 21 21 21 21 21 22 21 21 21 21 20 19 18 17 15 14 13 12
14 16 17 17 16 17 17 16 16 16 16 16 16 17 17 18 18 19 19 19 19 19 20 20 20 20 20 21 21 21 22 22 22 22 22 22 22 21 21 20 18 17 17 16
11 13 14 15 16 16 16 16 15 15 15 14 14 15 15 16 16 16 16 17 17 18 18 19 19 19 19 20 20 20 21 22 22 22 23 23 23 23 23 23 21 20 20 19
9 10 11 13 14 15 15 15 14 13 13 13 12 13 13 13 14 14 15 15 16 17 18 18 18 18 18 19 20 20 20 21 21 22 23 24 24 24 24 24 23 23 22 22
8 8 9 10 12 13 14 14 14 12 12 11 11 10 10 11 11 12 13 14 15 15 17 18 18 18 18 18 19 20 20 20 20 21 22 23 23 24 24 24 25 25 24 24
7 7 7 8 8 10 12 12 13 12 11 10 9 9 8 8 8 9 10 12 13 14 15 16 17 17 17 18 19 20 20 20 20 20 21 22 23 23 23 24 24 25 25 25
8 7 7 7 6 7 8 10 11 11 11 10 9 8 7 7 7 7 8 9 11 13 13 14 15 16 16 17 18 19 20 20 20 20 21 21 22 23 23 23 24 24 25 26
10 9 8 7 7 6 6 7 8 9 10 9 9 8 8 8 7 7 8 8 9 11 12 13 13 14 15 16 16 17 18 19 20 20 21 21 21 22 23 23 23 24 25 25
12 11 10 9 8 7 6 6 6 7 8 8 8 8 8 8 8 8 8 8 9 10 11 11 11 12 13 14 14 15 17 18 19 20 20 21 21 21 22 22 23 24 24 24

GEFSCGP_500_meanwind_042.txt.gz
Wind_Speed
18 19 20 22 23 25 26 27 27 27 27 28 28 28 28 29 29 31 32 33 35 36 37 39 40 42 43 44 46 48 49 50 50 50 52 50 48 47 45 42 40 38 37 35
17 18 20 22 23 24 25 26 26 26 26 27 27 27 28 29 30 31 32 33 34 36 37 38 39 41 42 44 45 47 48 50 51 50 50 51 51 49 47 45 42 40 39 36
16 18 20 21 22 23 24 25 25 25 25 24 25 26 26 27 28 29 31 32 33 34 34 35 36 38 39 40 42 44 46 47 48 49 50 49 50 49 48 47 45 43 41 38
15 17 18 20 20 21 22 22 22 21 22 22 22 25 23 25 26 28 28 28 28 29 29 30 30 31 33 34 36 37 39 40 42 43 45 46 46 47 46 46 46 45 44 40
13 15 16 17 17 17 18 19 19 19 19 20 19 20 21 22 24 25 25 25 25 25 25 25 25 26 27 28 28 29 30 32 33 35 37 40 41 43 43 43 43 44 44 43
11 12 13 14 15 17 17 17 17 16 16 16 17 18 19 19 20 21 22 22 22 22 22 21 21 21 20 19 20 21 21 22 24 26 30 33 36 38 40 40 41 42 42 41
9 11 12 13 14 15 16 16 16 15 15 15 16 16 16 17 17 17 18 18 17 18 17 17 17 17 15 13 13 15 16 16 17 19 22 25 29 32 34 36 37 37 37 37
10 11 12 13 14 15 15 15 14 14 15 14 14 15 15 15 15 15 16 16 16 15 14 15 15 14 13 11 10 10 10 9 10 12 14 17 21 24 27 29 31 32 33 35
10 11 12 12 14 14 14 14 14 13 13 13 14 14 14 14 14 15 16 16 15 14 14 15 15 14 14 12 11 10 8 6 6 6 8 10 13 15 18 21 24 27 30 31
10 11 12 13 13 14 14 14 14 13 13 13 13 14 14 14 14 15 15 15 15 16 16 16 16 15 15 15 14 12 10 9 7 5 4 4 7 10 13 16 19 22 25 27
12 12 13 14 15 15 15 14 15 14 14 13 13 14 14 14 14 16 16 16 16 18 18 18 17 16 16 17 16 15 14 12 11 9 6 4 2 4 7 11 14 17 20 23
13 14 14 15 16 17 16 15 15 15 15 15 14 14 14 14 14 15 16 16 17 18 19 20 20 20 20 19 19 17 16 15 13 11 10 7 5 2 2 5 8 11 14 17
14 14 15 16 17 17 17 17 16 16 16 15 15 14 14 14 15 16 17 18 18 19 20 21 21 21 21 20 20 19 18 17 16 14 12 11 9 6 4 2 2 5 9 12
15 15 16 17 17 17 18 17 16 16 17 16 16 15 15 15 16 17 17 18 18 19 19 20 21 21 21 21 21 21 20 19 18 16 15 14 12 10 8 5 3 2 4 6
15 15 16 16 17 17 18 17 16 16 16 16 16 15 15 16 16 17 17 18 18 19 20 20 21 21 21 22 22 21 21 20 20 19 18 16 15 13 11 9 7 5 3 3
14 15 15 16 17 17 17 17 16 15 15 15 15 15 15 15 16 16 17 18 18 19 19 19 20 21 21 22 22 21 21 20 20 20 19 18 17 15 13 12 11 8 7 6
13 14 14 15 16 16 16 16 15 14 14 14 14 14 14 15 15 16 17 17 18 18 18 18 19 20 20 21 21 21 21 21 21 21 20 20 19 18 16 15 13 12 10 9
11 12 13 14 14 15 14 14 14 13 13 13 13 13 13 14 15 15 16 17 17 18 18 18 18 19 20 20 21 21 21 21 21 21 21 21 20 19 18 17 16 15 13 12
8 9 11 13 13 13 13 12 12 11 11 11 11 11 12 13 13 15 16 17 17 17 17 18 18 19 19 20 20 20 20 21 21 21 21 21 20 19 19 18 18 17 16 15
6 7 8 10 11 12 12 11 11 10 10 10 10 9 10 11 12 13 14 15 16 16 16 17 17 18 19 19 19 19 20 20 21 21 21 21 20 20 19 19 19 19 19 17
5 5 6 7 9 10 11 10 10 10 9 10 9 9 8 9 10 11 12 13 14 15 15 16 16 17 18 18 19 19 19 20 20 20 20 20 20 20 20 20 20 20 20 19
6 5 4 5 6 7 9 9 10 9 9 9 9 8 7 8 8 9 11 12 12 13 14 14 15 16 16 17 18 18 18 19 20 20 20 20 21 21 21 21 21 21 21 21
8 7 6 5 5 5 6 7 8 9 9 8 8 8 8 7 8 8 9 11 11 12 12 13 13 14 15 16 16 17 18 19 19 20 21 21 21 21 21 21 21 21 22 22
10 10 9 8 7 6 6 6 7 8 8 8 8 7 8 8 8 8 9 10 11 11 11 11 12 12 13 14 15 16 17 18 19 19 20 21 21 21 21 21 21 21 22 22
13 12 11 10 9 9 8 8 7 7 7 7 7 7 7 7 8 8 8 9 10 10 11 11 11 11 12 13 13 14 15 17 18 19 20 21 21 21 21 21 21 22 22 23
17 15 14 13 12 11 10 10 9 9 8 7 7 7 7 7 7 7 7 7 8 9 10 11 11 11 11 11 12 12 13 15 16 18 19 20 21 21 21 21 22 22 22 22

GEFSCGP_500_meanwind_048.txt.gz
Wind_Speed
17 19 20 22 23 23 24 25 28 34 34 33 34 33 31 31 31 31 32 33 33 34 36 36 36 37 38 38 39 40 41 42 43 45 46 47 47 48 48 48 47 46 45 44
18 19 19 21 22 23 25 25 26 29 28 29 30 30 28 27 28 28 29 31 32 32 33 34 34 35 35 36 37 38 39 40 41 43 44 45 46 47 48 48 47 46 46 44
17 18 18 21 22 22 22 22 23 25 27 26 26 26 25 23 24 25 26 28 29 29 30 30 30 31 31 31 32 33 34 35 37 38 40 42 43 45 46 47 47 46 46 44
15 17 18 19 20 19 21 21 21 22 23 23 22 24 24 23 23 23 24 25 25 25 25 25 25 24 25 26 28 29 30 31 32 33 34 36 39 40 41 43 44 44 44 43
13 14 15 17 18 19 19 20 20 19 18 18 19 22 24 24 24 24 24 23 23 22 20 19 19 20 21 21 23 23 24 24 25 26 28 29 32 34 36 38 39 39 40 40
11 12 14 15 16 16 17 17 16 15 15 17 18 21 24 22 23 22 21 21 20 19 17 17 17 17 18 19 19 19 19 19 20 21 22 24 25 27 29 32 34 35 36 36
7 8 11 12 13 14 15 15 15 14 16 18 19 19 20 20 20 19 19 18 18 17 16 16 17 16 17 17 17 17 16 16 17 18 18 18 20 21 22 25 27 28 30 31
7 8 9 11 13 14 14 14 13 10 8 14 15 16 17 17 17 17 18 17 17 17 17 17 17 17 17 17 16 16 15 15 15 14 14 14 14 14 15 18 21 23 25 27
6 7 10 11 12 13 13 12 12 10 9 10 15 15 15 16 16 17 17 17 17 17 18 18 18 18 19 19 18 17 16 15 15 14 13 11 10 10 11 13 16 19 20 23
5 7 9 10 11 13 13 12 12 11 11 8 13 15 16 17 17 17 17 18 18 18 19 19 20 20 21 21 20 19 18 16 16 15 14 12 10 9 9 9 10 13 16 19
6 7 9 10 12 14 14 13 13 12 12 11 12 14 15 16 16 17 17 18 18 18 19 20 20 21 22 22 22 21 19 17 16 15 14 14 12 10 8 7 6 7 10 13
7 9 10 11 13 14 14 14 14 14 13 12 13 13 14 15 16 16 17 18 18 19 19 20 21 22 22 22 23 22 22 20 18 16 15 14 14 12 9 7 6 5 5 7
8 9 11 12 13 14 14 14 14 14 14 14 14 14 14 15 16 17 17 18 18 19 20 21 21 22 22 22 22 23 23 23 21 20 18 17 16 15 12 10 8 7 5 5
9 9 11 13 14 14 14 14 14 14 15 15 14 14 15 15 16 17 17 18 18 19 19 20 21 21 22 22 23 23 23 23 23 22 20 19 18 17 15 13 11 10 8 6
9 9 11 12 13 14 14 14 14 14 14 14 14 14 15 16 17 17 17 18 19 19 20 20 21 21 21 22 23 23 23 23 23 22 21 20 19 18 17 16 14 12 10 9
8 8 10 10 11 12 13 13 14 13 13 14 14 14 15 16 16 17 18 18 19 20 20 20 20 21 21 21 22 23 23 23 23 23 22 21 21 20 19 18 16 14 13 11
6 7 8 9 10 11 11 12 13 13 13 13 13 14 14 15 16 16 18 18 19 19 20 20 20 20 21 21 22 23 23 23 23 23 22 22 21 21 20 19 18 16 15 13
5 6 7 8 9 9 11 11 12 12 12 12 13 13 14 14 15 16 17 18 19 19 20 20 20 20 20 21 22 22 23 23 23 22 22 22 22 22 21 21 20 18 17 17
5 6 6 7 8 8 9 10 10 11 12 12 12 13 13 14 14 15 16 17 18 18 19 19 19 19 20 20 21 22 23 23 23 23 22 22 22 22 22 22 21 20 19 19
6 6 6 6 7 7 8 9 9 10 11 12 12 12 13 13 14 15 15 16 17 18 18 18 18 18 19 20 20 21 22 23 24 24 23 23 23 23 23 23 23 22 21 21
8 8 8 7 7 7 8 8 8 9 10 11 11 12 12 13 14 14 15 16 17 17 17 17 17 18 18 18 19 20 21 22 23 24 24 23 23 23 23 24 24 23 23 22
11 10 10 10 9 8 8 8 8 9 9 10 10 11 12 12 13 14 15 15 16 16 16 16 16 17 17 17 18 19 20 21 22 23 24 24 24 24 24 24 25 25 24 24
13 13 12 12 11 11 11 10 10 10 9 10 10 10 10 11 12 13 13 14 15 15 15 15 15 16 16 16 17 18 19 20 21 22 23 24 24 24 24 25 25 25 25 25
15 15 15 15 15 14 13 13 13 12 11 10 10 10 10 10 11 12 12 12 13 14 15 15 15 15 15 15 16 17 18 18 19 20 22 23 23 24 24 25 25 25 25 26
18 18 18 18 18 17 16 16 16 15 14 13 12 11 11 11 11 11 11 12 12 13 14 14 14 14 14 15 15 16 16 17 18 19 20 21 22 24 24 24 25 25 25 26
21 21 21 21 21 20 19 18 18 18 17 16 15 14 13 13 12 11 11 11 12 12 13 13 13 13 14 14 14 15 15 15 16 17 18 20 21 22 23 24 24 25 25 25

GEFSCGP_500_meanwind_054.txt.gz
Wind_Speed
17 16 17 18 19 20 21 22 24 24 25 25 25 25 24 23 23 24 25 25 26 27 28 28 27 27 27 27 28 29 30 31 32 34 35 36 38 39 39 40 39 39 40 41
14 14 15 16 17 19 20 21 22 23 23 24 23 21 19 19 20 21 22 22 23 24 24 25 24 24 24 24 24 25 25 26 28 29 31 32 34 36 37 37 38 38 40 40
12 12 13 14 15 17 18 20 21 22 22 21 19 17 17 16 16 18 19 20 21 21 21 22 22 21 21 21 22 22 22 23 24 26 27 28 30 31 33 35 36 37 39 39
9 10 11 12 14 15 16 18 19 19 18 17 17 15 14 15 16 17 18 19 20 20 20 20 20 19 19 19 18 19 19 20 21 22 22 23 24 26 29 31 32 34 35 37
7 9 10 11 12 13 14 15 16 16 15 14 13 13 14 16 17 18 19 19 19 19 19 19 19 18 18 17 17 17 17 18 18 18 18 19 21 23 24 26 28 30 32 34
6 7 8 9 9 10 12 13 13 13 13 11 11 12 15 17 18 19 19 19 19 19 20 20 20 19 18 18 18 18 18 17 16 16 16 17 18 19 20 21 23 25 27 29
3 5 5 6 7 9 11 12 12 11 10 9 10 12 15 16 17 18 19 19 19 19 20 20 20 20 20 19 19 19 18 18 16 15 14 14 14 15 16 17 18 20 23 26
1 1 2 4 7 8 10 11 11 11 11 11 11 12 14 15 16 17 18 18 19 19 20 20 20 21 21 21 20 19 19 18 16 15 14 13 13 12 11 12 13 15 17 20
4 3 3 5 7 9 10 11 11 12 12 12 12 12 13 15 15 16 17 18 19 19 20 21 21 21 21 22 21 21 20 19 18 16 15 14 13 12 10 9 9 11 12 14
6 5 6 6 9 10 11 11 12 13 13 13 12 13 14 15 15 16 17 18 18 19 21 21 21 21 21 22 22 22 22 21 20 19 17 16 15 13 11 8 7 8 9 10
7 7 7 7 9 10 11 12 13 13 14 13 13 14 15 15 16 16 17 18 19 19 20 21 21 21 22 22 22 23 22 22 21 21 19 18 16 15 14 11 9 7 6 8
8 8 7 7 8 10 11 12 12 13 13 13 13 14 15 16 16 17 18 19 19 20 20 20 21 22 23 23 23 23 23 22 22 21 21 20 19 17 15 13 11 10 8 7
8 8 7 7 9 10 11 11 12 12 12 12 12 13 14 15 17 18 18 19 20 20 20 20 20 21 22 23 23 23 23 23 22 22 21 21 20 19 17 15 13 11 10 8
8 7 7 7 8 9 10 10 11 11 11 11 12 13 13 15 16 17 18 19 20 20 20 20 20 21 22 23 23 23 24 23 22 22 22 22 21 20 18 16 15 13 12 10
7 6 6 6 7 8 8 9 10 10 10 11 11 12 13 14 14 16 17 18 19 20 20 20 20 21 22 23 23 24 24 24 23 23 22 22 22 21 19 17 16 15 13 12
5 5 5 4 5 5 7 8 8 9 9 10 11 12 13 13 14 15 17 18 19 19 19 20 20 21 21 22 23 24 25 24 24 23 23 23 23 22 20 19 18 16 15 13
4 4 3 3 3 5 5 7 7 8 9 10 10 11 12 13 14 15 16 17 18 18 19 19 20 20 21 21 22 24 24 25 25 24 24 24 23 23 22 21 20 18 17 16
2 1 2 2 2 3 5 6 7 8 8 9 10 11 11 12 14 15 16 17 17 18 18 19 19 19 20 21 22 22 24 24 25 25 25 25 24 24 23 23 21 20 19 18
1 1 1 1 2 3 4 5 6 7 8 9 9 10 11 12 13 14 15 16 17 17 17 18 19 19 20 20 21 22 22 24 25 26 26 26 25 25 24 24 23 22 21 20
3 3 2 2 3 3 4 4 5 6 7 8 9 10 10 11 12 13 14 15 16 16 16 17 18 19 19 20 20 21 21 23 24 25 26 26 26 26 25 25 24 24 23 22
6 5 5 5 5 5 5 5 5 6 7 8 9 9 10 11 11 12 12 13 14 15 16 16 17 17 18 19 19 20 21 22 23 24 25 26 26 26 26 26 25 25 24 24
9 9 8 8 8 8 8 8 8 8 8 9 9 9 10 10 11 11 12 13 13 14 15 15 16 16 17 18 18 19 19 20 21 23 24 25 26 26 26 26 26 26 25 25
13 13 12 12 11 11 11 11 11 10 10 11 11 11 11 11 11 12 12 13 13 14 14 15 15 15 16 16 17 18 18 19 20 21 22 24 25 25 26 26 26 26 26 26
16 17 16 16 15 13 14 14 14 14 13 13 13 13 13 13 13 13 14 14 14 14 14 14 14 14 15 15 16 16 17 18 18 19 20 22 23 24 25 25 26 26 26 26
20 19 19 19 18 16 16 17 17 17 17 16 16 16 16 15 15 15 15 15 15 15 15 15 15 15 15 15 15 15 16 16 17 18 18 19 21 22 23 24 24 24 25 25
23 21 20 20 19 19 19 19 19 20 20 20 20 19 19 19 18 18 18 17 17 17 17 16 16 15 15 15 15 15 15 15 16 16 17 17 18 19 20 21 22 23 23 23

GEFSCGP_500_meanwind_060.txt.gz
Wind_Speed
21 20 19 19 20 20 21 22 22 22 21 21 21 20 20 20 20 20 21 22 23 23 23 23 22 22 22 21 21 21 21 22 24 25 26 27 28 30 32 34 36 38 39 41
20 19 18 18 18 19 20 20 20 20 19 18 18 17 17 17 18 20 21 21 21 20 20 21 21 21 20 20 19 19 19 20 20 21 22 23 25 26 27 29 32 34 37 39
18 16 16 16 16 17 17 17 17 17 16 16 15 14 14 16 17 18 19 18 18 18 19 20 20 20 20 20 19 19 18 18 17 17 18 19 21 23 25 26 28 31 33 36
16 15 14 14 14 14 13 14 15 14 14 13 13 11 13 14 15 16 16 16 17 18 19 20 20 21 21 20 19 19 18 17 17 16 16 16 17 19 21 23 25 27 29 31
13 12 11 11 10 11 12 13 13 12 11 10 10 10 11 13 13 14 15 16 17 18 19 20 20 20 20 21 20 20 19 18 17 16 15 15 16 17 18 20 22 24 26 28
11 10 8 7 7 9 10 11 10 9 8 8 9 10 11 12 12 14 15 16 17 18 19 20 21 21 21 21 21 21 20 18 17 16 15 14 15 15 16 17 18 21 23 26
9 7 5 4 5 7 8 8 8 7 8 9 10 10 11 12 13 14 15 17 18 19 20 21 21 21 21 22 22 21 20 19 19 18 16 15 15 14 14 13 14 16 18 21
7 5 2 2 4 5 6 6 7 7 8 9 10 11 12 13 14 15 16 17 18 18 20 21 21 21 22 22 23 22 21 20 19 18 17 17 16 14 13 13 13 13 14 16
6 3 2 0 2 3 4 5 6 7 8 9 10 11 12 13 14 16 16 17 18 19 20 21 21 21 22 23 23 22 21 21 20 20 19 18 17 16 14 13 12 11 11 12
5 4 2 2 2 3 4 5 5 6 7 8 10 11 12 13 14 16 16 17 18 18 19 20 21 21 22 23 23 23 22 21 21 21 20 20 19 17 16 14 13 12 10 10
6 4 3 3 3 3 3 4 5 6 7 8 9 10 11 13 14 15 16 17 18 18 18 19 20 21 22 23 23 22 22 22 21 21 21 21 20 19 17 16 15 13 12 10
6 5 4 4 4 4 4 4 5 6 7 8 9 10 11 12 14 15 16 17 18 18 18 19 20 21 22 23 23 23 23 23 22 22 22 22 21 19 18 17 16 15 14 12
6 5 5 4 4 4 4 4 4 5 7 8 9 10 11 12 13 15 16 16 17 18 19 19 19 20 21 22 23 24 24 23 23 23 23 23 22 20 19 19 18 17 15 13
6 5 4 4 3 3 3 3 4 5 6 8 9 10 11 12 13 14 15 16 17 18 18 19 19 20 21 22 23 24 24 25 25 24 24 24 23 22 21 20 19 18 17 16
6 4 3 3 2 2 2 3 4 5 6 7 8 9 10 11 12 14 15 16 16 17 18 18 19 20 20 21 22 23 24 25 25 25 25 25 24 24 23 22 21 20 19 18
5 4 3 2 1 0 1 3 4 5 6 7 8 9 10 11 12 13 15 16 16 17 17 18 19 19 20 21 22 22 23 24 25 26 26 26 25 25 24 23 23 22 21 20
4 4 3 2 2 1 2 3 4 5 6 6 7 8 9 10 11 12 14 15 17 17 18 18 19 19 20 21 21 22 23 24 25 26 26 26 26 25 25 25 24 24 23 22
4 4 4 4 4 3 3 3 4 5 6 6 7 8 9 10 10 11 13 14 16 17 17 18 18 19 20 20 21 22 23 24 25 26 26 26 26 26 26 26 26 25 25 24
6 6 6 6 6 5 5 5 6 6 6 7 8 9 9 10 11 11 13 14 15 16 17 17 18 18 19 20 21 21 22 23 24 25 26 26 27 27 27 27 27 27 26 25
7 7 8 8 8 8 8 8 8 8 8 9 9 10 10 11 12 12 13 14 14 15 16 17 17 18 19 19 20 21 22 22 24 25 25 26 27 27 28 28 28 28 28 27
10 10 10 10 11 11 10 10 10 10 11 11 12 12 12 12 13 13 14 15 15 16 16 17 18 18 18 19 20 21 21 22 23 24 25 26 26 27 28 28 28 29 29 28
13 13 13 13 13 13 13 13 13 14 14 15 15 15 15 15 15 16 16 16 17 17 17 18 18 19 19 19 20 20 21 22 23 23 24 25 26 26 27 28 28 29 29 29
16 15 16 16 16 15 15 16 16 16 17 18 18 18 18 18 18 18 18 18 19 19 19 19 19 19 20 20 20 21 21 22 22 23 23 24 25 25 26 26 27 28 29 29
18 18 18 18 18 18 18 18 18 19 20 20 20 20 20 20 21 21 21 21 21 21 21 21 21 21 21 21 21 21 22 22 22 23 23 24 24 24 25 25 26 26 27 28
21 21 21 21 20 20 20 21 21 22 22 23 23 22 22 23 23 23 24 24 24 24 23 23 23 23 23 23 23 23 22 22 22 23 23 23 23 23 24 24 24 24 25 26
23 23 22 22 22 22 22 23 24 24 24 24 24 24 24 25 25 25 26 26 26 26 26 26 25 25 25 25 25 24 24 23 23 23 23 23 23 23 23 23 23 23 23 23

GEFSCGP_500_meanwind_066.txt.gz
Wind_Speed
21 21 20 19 18 18 17 17 18 17 16 16 16 15 15 15 14 15 15 16 16 17 18 19 20 20 21 21 20 20 20 20 19 19 19 19 20 22 23 26 28 31 34 36
22 21 19 18 17 16 16 16 15 14 14 14 13 12 12 12 12 13 14 15 16 17 19 19 20 20 20 20 20 20 20 19 18 17 17 16 17 18 19 21 24 27 31 33
21 19 18 17 16 15 14 13 13 12 12 11 10 9 10 10 11 12 13 14 15 17 18 19 20 21 20 20 20 21 20 18 17 16 15 14 14 15 16 18 21 24 26 29
20 18 16 15 13 12 12 11 10 9 8 8 7 7 9 9 10 11 12 14 15 16 18 19 20 20 21 21 21 21 19 18 17 16 15 14 13 13 13 15 17 19 23 26
18 16 14 13 11 10 9 8 7 5 5 4 5 6 8 9 10 11 12 13 15 16 18 19 20 20 21 21 21 20 20 19 18 17 16 15 13 12 13 13 14 16 18 21
16 14 12 10 9 7 6 4 3 2 2 3 5 6 7 8 10 11 12 13 14 16 17 19 20 20 21 21 21 20 20 20 20 19 17 16 15 13 13 12 13 14 15 18
14 12 10 9 7 5 3 1 1 2 2 3 4 5 7 8 10 11 12 13 15 16 17 18 19 20 21 21 21 21 21 21 20 20 19 18 16 15 14 13 13 13 13 15
12 11 9 8 6 4 3 3 3 3 3 3 4 5 7 8 10 11 12 13 15 15 16 17 19 20 21 22 21 21 21 21 21 21 20 19 18 17 16 15 14 13 13 12
11 10 8 7 6 5 5 5 5 5 4 4 4 5 7 8 10 11 12 14 15 15 16 17 18 20 21 22 22 22 22 22 22 22 21 20 20 19 18 16 15 14 13 12
11 10 9 8 7 6 6 6 6 5 4 4 4 5 6 8 10 11 12 13 14 15 16 17 18 19 20 22 22 23 23 23 23 23 23 22 21 20 20 19 18 17 15 13
11 10 9 8 7 7 7 6 6 5 4 4 4 5 6 7 9 11 12 13 14 15 16 17 18 19 20 21 22 23 24 24 24 24 24 23 23 22 21 20 19 18 17 15
11 10 9 8 8 7 7 6 5 5 4 4 4 5 6 7 9 10 11 12 13 14 15 16 17 18 19 20 21 22 23 24 24 24 24 24 24 23 22 22 20 20 18 17
11 10 10 9 8 7 7 6 5 4 4 3 4 5 6 8 8 10 11 12 13 14 15 16 17 18 19 20 21 22 23 23 24 24 25 25 25 24 24 23 22 21 21 19
11 10 10 9 8 7 6 5 4 3 3 3 4 5 6 7 8 9 11 12 13 14 15 15 16 17 19 20 21 22 22 23 23 24 25 25 25 25 25 24 24 23 22 21
11 10 9 8 7 6 5 4 3 2 2 2 3 4 5 6 7 8 10 11 12 13 14 15 16 17 18 19 20 21 22 23 23 24 24 25 25 25 26 25 25 24 24 23
10 9 8 7 6 5 4 3 2 2 1 1 1 3 4 5 6 7 9 10 11 13 14 15 16 17 17 18 20 21 22 23 23 24 25 25 25 25 26 26 26 25 25 25
10 9 8 6 6 5 4 3 2 1 1 1 2 3 4 5 6 7 8 10 11 12 14 15 15 16 17 18 19 20 21 22 23 24 24 25 25 26 26 27 27 27 26 26
10 8 7 7 6 6 5 4 3 3 3 3 4 4 5 6 7 9 10 11 12 13 14 15 16 17 18 18 19 20 21 22 23 23 24 25 25 26 26 27 28 28 28 27
9 9 8 8 7 6 6 6 6 6 6 6 6 7 8 8 9 10 11 12 13 14 15 16 17 17 18 19 20 20 21 22 22 23 24 25 25 25 26 27 28 29 29 28
10 9 9 9 9 9 8 8 8 8 8 8 9 9 10 11 12 12 13 14 15 16 16 17 17 18 19 20 20 21 21 22 22 23 24 24 25 25 26 27 27 28 29 29
11 11 11 11 10 10 10 10 10 10 11 11 11 12 12 13 14 14 15 16 16 17 17 18 19 19 20 20 21 21 22 22 22 23 23 24 25 25 26 26 27 27 28 28
13 13 12 12 12 11 12 12 12 13 13 14 14 14 15 15 16 16 17 17 18 18 19 20 20 20 21 21 21 22 22 22 23 23 24 24 25 25 25 26 26 26 26 27
15 15 15 15 15 14 14 14 15 15 15 16 16 16 17 17 17 18 18 18 19 19 20 20 21 21 21 22 22 22 23 23 23 24 24 24 25 25 25 25 25 26 26 25
17 17 17 16 16 16 17 17 17 17 17 18 18 18 18 18 19 19 19 20 20 21 21 21 22 22 23 23 24 24 24 24 24 25 25 25 25 25 25 25 25 25 25 25
20 20 19 19 19 19 19 19 19 19 19 19 19 20 20 20 20 21 21 22 22 22 23 23 24 24 25 25 25 25 25 25 25 26 26 25 25 25 25 24 24 24 24 24
23 23 23 23 22 22 22 22 22 22 21 21 21 21 22 22 23 23 23 24 24 25 26 26 27 28 28 28 28 27 27 26 26 27 27 26 26 25 25 24 24 24 24 23

GEFSCGP_500_meanwind_072.txt.gz
Wind_Speed
23 21 19 16 17 17 16 14 15 19 20 18 19 18 18 15 14 14 14 14 15 16 17 18 19 21 21 21 21 21 21 20 19 18 18 17 16 15 15 16 18 20 22 24
23 20 18 19 18 17 15 15 15 19 18 16 16 14 13 12 11 12 12 13 14 15 17 18 19 20 21 21 21 21 21 20 20 19 18 17 16 15 14 13 14 16 18 20
19 18 19 18 18 17 15 17 16 17 16 14 12 10 8 8 9 10 11 12 13 15 16 18 19 20 21 21 21 21 21 21 20 19 19 17 16 15 14 12 12 13 14 17
22 21 19 18 17 16 16 16 14 13 13 10 8 8 7 7 8 9 10 11 13 14 16 17 18 19 20 21 21 21 21 22 21 20 20 19 17 16 14 13 11 11 12 14
22 20 19 18 17 15 16 12 11 10 8 7 5 6 8 7 8 8 10 11 13 14 15 16 17 19 20 21 21 21 22 22 22 21 21 20 19 17 16 14 13 12 12 12
20 18 19 19 15 14 12 10 8 6 5 3 4 5 7 6 7 8 9 11 12 13 14 15 16 18 19 20 21 22 22 22 22 22 22 21 20 19 18 17 15 14 13 13
16 15 16 15 14 13 11 9 6 1 5 6 5 5 6 6 7 8 9 10 11 12 13 14 16 17 19 20 21 22 23 23 23 23 23 22 21 21 20 19 18 16 14 13
10 12 13 14 13 12 11 10 9 7 3 9 8 6 4 4 6 7 8 9 10 11 12 14 15 17 18 19 20 22 23 23 24 24 24 23 23 22 22 21 20 18 16 15
8 13 11 11 12 11 11 10 10 10 11 7 7 5 2 4 5 6 7 8 9 10 11 13 14 16 17 19 20 21 22 23 24 24 24 24 24 23 23 22 22 20 18 16
13 13 11 11 11 11 11 10 10 10 10 6 7 8 4 3 4 5 5 7 8 9 10 12 14 15 17 18 19 20 21 22 23 24 24 24 24 25 24 24 23 22 20 18
12 9 9 10 11 10 11 10 10 10 9 9 7 7 3 2 3 3 5 6 7 9 10 12 13 15 16 17 18 19 20 21 22 23 24 24 24 25 25 25 25 24 23 20
16 13 9 9 8 9 10 10 11 11 10 8 7 3 2 1 1 3 4 5 7 8 10 11 13 14 15 17 18 19 20 21 22 22 23 24 24 24 24 25 25 25 24 23
16 15 11 7 8 11 11 11 10 9 8 7 6 3 3 1 0 2 3 5 6 8 10 11 12 14 15 17 18 19 20 21 22 22 23 23 24 24 24 25 25 25 25 24
14 15 15 13 13 12 12 11 11 10 9 8 6 4 3 2 1 2 3 5 6 8 10 11 13 14 15 17 18 19 20 21 21 22 23 23 24 24 24 24 25 25 25 25
15 15 15 14 12 11 11 11 11 10 9 8 7 5 4 3 3 3 4 6 7 9 10 12 13 14 16 17 18 19 20 21 21 22 23 23 24 24 25 25 25 25 25 25
14 14 14 12 11 11 11 11 10 10 9 8 7 6 5 4 4 5 6 7 8 10 11 13 14 15 16 17 18 19 20 20 21 22 23 23 24 25 25 25 26 26 26 26
14 13 13 12 12 12 11 11 10 10 9 8 8 7 6 6 6 7 8 9 10 11 13 14 15 15 16 17 19 20 20 21 22 22 23 24 24 25 25 25 25 26 26 26
14 14 14 13 13 13 11 10 10 10 10 9 8 8 8 8 9 9 10 11 12 13 14 15 16 17 17 18 19 20 21 22 22 23 23 24 24 25 25 25 25 26 26 26
15 15 14 14 13 11 11 11 11 11 11 10 10 10 10 11 11 11 12 13 13 14 15 16 17 18 18 19 20 20 21 22 22 23 23 24 24 25 25 26 26 25 26 26
15 15 15 14 14 13 13 11 12 13 13 12 12 12 12 13 13 12 13 14 15 15 16 17 18 19 19 20 21 21 22 23 23 24 24 25 25 25 26 26 26 25 25 26
17 17 16 16 16 16 13 12 14 15 14 13 14 14 14 15 15 15 15 16 16 17 18 18 19 20 20 21 22 22 23 24 24 25 25 26 26 26 26 26 27 26 26 25
19 18 18 18 19 18 15 16 16 16 15 16 16 16 16 16 16 17 17 18 18 18 19 19 20 21 22 23 23 24 24 25 26 26 27 27 27 27 27 27 27 27 26 26
21 20 20 21 21 19 18 18 18 18 18 18 18 18 18 18 19 19 19 19 19 20 20 21 22 22 23 24 24 25 26 27 27 28 28 28 28 28 28 27 27 27 27 26
24 23 23 23 22 21 21 21 21 21 20 20 20 20 20 20 20 20 20 21 21 21 22 23 24 24 25 25 26 27 28 29 29 30 30 30 29 29 29 28 28 28 27 26
27 26 25 25 24 24 23 23 23 23 23 23 22 22 22 22 22 22 22 22 22 23 24 25 25 26 27 27 28 29 30 32 32 32 32 32 31 31 30 29 29 29 28 28
29 29 28 27 27 27 26 25 25 25 25 25 24 24 24 24 24 24 24 24 25 25 26 26 27 28 29 30 31 32 33 34 34 34 33 33 32 31 31 30 29 29 28 28

GEFSCGP_500_meanwind_078.txt.gz
Wind_Speed
29 27 23 19 17 16 15 14 14 12 11 10 8 7 8 8 7 7 8 9 9 10 12 13 15 16 17 18 19 20 20 20 20 20 19 18 17 16 15 14 12 11 11 13
28 25 22 19 17 15 14 13 13 13 11 9 8 7 6 5 5 5 7 8 9 10 11 13 14 15 16 18 18 20 20 20 20 20 20 20 19 17 16 15 13 11 9 9
24 22 22 19 17 15 13 13 12 12 11 9 7 6 5 3 2 4 6 7 8 9 10 12 13 15 16 17 18 19 20 20 21 21 21 20 19 19 17 16 14 12 10 9
24 23 21 19 16 14 12 11 11 11 10 9 7 5 3 2 0 3 5 6 7 8 9 11 13 14 16 17 18 19 20 21 21 21 21 21 20 20 19 18 17 14 11 9
21 20 18 16 14 12 10 10 10 10 9 7 6 5 3 2 2 2 4 5 6 7 9 10 12 13 14 16 17 19 20 21 21 22 22 22 21 21 20 19 18 16 14 11
19 18 17 15 13 12 11 10 11 10 9 8 6 5 4 5 3 3 3 4 5 6 8 9 10 12 13 15 17 18 19 20 21 21 22 22 22 22 21 21 20 18 16 14
19 17 15 14 13 12 12 11 11 11 10 10 7 6 6 5 4 4 3 3 4 5 6 8 9 11 12 14 16 17 18 19 20 21 21 22 22 22 22 22 21 20 19 17
18 16 13 13 13 13 13 12 12 12 12 11 9 7 6 6 5 4 3 3 3 4 5 7 8 10 12 13 15 16 17 18 19 20 21 21 22 22 22 22 21 21 20 19
16 15 13 13 13 13 12 12 12 13 13 12 9 8 7 6 5 4 4 3 3 3 4 6 7 9 11 13 14 16 17 18 19 20 21 21 22 22 22 22 22 22 21 20
14 14 13 12 12 12 12 12 12 13 13 12 10 9 8 7 5 5 4 3 2 3 3 5 7 9 11 12 14 15 16 18 19 20 20 21 22 22 22 23 22 22 22 21
13 12 12 12 12 12 12 12 12 12 13 12 11 9 9 8 7 6 4 3 2 1 3 4 6 8 11 12 14 15 16 18 19 20 20 21 22 22 22 22 22 22 22 21
13 13 13 12 12 12 13 13 12 12 12 12 11 8 10 9 8 7 6 4 2 1 3 5 7 9 10 12 14 15 17 18 19 20 21 21 22 22 22 22 22 22 22 21
14 14 14 13 13 13 13 13 13 12 12 12 11 9 11 10 10 8 7 5 3 3 4 6 7 9 11 13 14 15 17 18 19 20 21 21 22 22 23 22 22 22 21 21
16 15 15 15 15 14 14 13 13 13 13 12 11 10 10 10 9 8 7 5 4 4 5 7 8 10 12 13 14 16 17 18 19 20 21 22 22 22 22 22 22 22 21 21
15 15 16 15 15 15 14 14 14 13 13 12 11 10 10 10 10 9 7 6 6 6 7 8 10 11 12 14 15 16 18 19 19 20 21 21 22 22 22 22 22 22 22 21
15 15 15 15 15 15 14 14 14 13 13 13 12 10 11 12 11 9 8 7 7 7 8 9 11 12 13 14 15 17 18 19 20 20 21 21 22 22 22 22 22 22 22 21
14 15 15 15 16 15 12 13 14 14 14 13 12 11 13 12 11 10 9 8 9 9 10 11 12 13 14 15 16 17 18 20 20 21 21 22 22 22 22 23 23 22 22 21
14 15 15 15 16 15 12 15 15 15 14 14 13 13 12 12 11 10 10 10 10 11 12 12 13 14 14 15 16 18 19 20 21 21 22 22 23 23 23 23 23 23 22 22
15 15 15 16 16 13 13 15 16 16 15 15 14 14 13 13 12 12 12 12 12 13 13 13 14 15 15 16 17 19 19 20 21 22 22 23 23 24 24 24 24 24 23 22
17 17 17 17 17 14 13 16 17 16 16 16 16 16 15 14 14 14 14 14 14 14 14 15 15 16 17 17 18 19 20 21 22 22 23 23 24 25 25 25 25 24 24 23
19 19 19 19 19 15 15 16 17 17 16 17 16 16 16 15 16 16 16 16 16 16 16 16 16 17 17 18 19 20 21 22 23 23 24 25 26 26 26 26 25 25 25 24
21 21 21 21 20 16 18 18 18 17 17 17 17 17 17 17 17 17 17 17 17 17 17 17 17 17 18 19 20 21 22 23 24 25 26 27 27 28 28 27 27 26 26 25
24 24 24 24 22 21 20 20 20 19 19 19 19 18 19 18 18 19 19 19 19 19 18 18 18 19 19 20 21 22 23 25 26 27 28 29 29 29 29 28 28 27 27 25
27 27 27 26 24 24 24 23 22 22 21 21 21 20 20 20 20 20 20 20 20 20 20 19 19 20 21 22 23 24 25 26 28 28 29 30 31 30 30 29 28 28 27 26
31 31 30 29 27 27 26 25 25 25 24 23 22 22 21 21 21 21 21 21 21 21 21 21 21 21 22 24 25 26 27 28 30 30 31 32 32 31 31 30 30 29 28 27
34 35 34 33 31 31 29 28 28 27 25 25 24 24 23 23 22 22 22 22 22 22 22 22 23 24 24 25 27 28 29 30 31 32 33 33 33 32 32 31 31 30 28 27

GEFSCGP_500_meanwind_084.txt.gz
Wind_Speed
30 27 21 18 18 17 15 12 11 11 9 10 10 11 11 9 8 7 6 4 2 1 3 5 7 9 11 12 14 16 18 19 20 20 21 21 20 20 20 19 17 16 14 11
27 22 20 19 18 17 13 11 10 11 10 10 11 11 11 9 8 7 5 4 3 1 2 4 6 8 10 12 14 16 17 18 19 20 21 21 21 21 21 20 19 17 14 12
22 19 19 18 16 14 12 11 11 12 11 11 12 11 11 9 8 7 6 5 4 2 2 3 5 7 9 11 14 16 17 18 19 20 21 22 22 22 22 21 20 18 16 14
21 20 18 17 15 14 13 13 12 13 12 12 12 11 11 10 8 8 7 6 4 3 2 2 4 6 8 10 13 15 16 17 19 20 21 21 22 22 22 22 21 19 17 15
19 18 16 15 14 14 14 14 14 14 13 12 11 11 10 10 9 8 8 7 5 4 2 2 3 5 7 10 12 14 16 17 18 19 20 21 22 22 22 22 21 20 19 17
18 17 16 15 15 15 15 15 15 15 13 12 11 11 9 10 9 9 8 7 6 5 3 2 2 4 7 9 11 13 15 17 18 19 20 21 21 22 22 22 21 20 19 18
17 16 16 15 15 15 15 15 15 15 13 12 12 11 10 10 10 9 9 8 7 6 4 2 1 3 6 8 10 12 14 16 18 19 20 20 21 21 22 22 22 21 20 19
16 16 15 14 14 15 15 15 16 15 14 12 11 10 10 11 10 10 10 9 8 6 4 2 0 3 6 8 10 12 14 16 17 19 20 20 20 21 21 21 21 21 20 20
15 14 14 14 14 15 15 16 16 16 15 14 12 10 11 12 12 11 11 10 8 7 5 3 1 3 5 8 10 12 14 15 17 18 19 20 20 20 20 21 21 20 20 20
14 14 14 14 14 14 14 14 15 16 17 15 13 12 12 13 13 13 12 11 9 7 6 4 2 3 5 8 10 12 14 15 17 18 19 19 20 20 20 20 20 20 20 20
12 13 13 14 14 13 14 14 15 16 16 16 14 12 13 14 14 14 13 12 10 8 7 5 3 4 6 8 10 12 13 15 16 17 18 19 19 20 20 20 20 20 20 19
12 13 13 14 14 15 15 15 15 16 16 16 14 11 14 15 15 15 14 13 11 9 8 6 5 5 7 9 10 12 13 15 16 17 18 18 19 20 20 20 20 19 19 19
13 14 15 15 16 16 17 17 17 17 17 16 14 12 15 15 15 15 15 14 12 10 9 7 6 7 8 9 10 12 13 15 16 17 17 18 19 19 19 20 20 20 19 19
16 16 16 16 17 18 18 18 19 19 18 16 14 13 15 16 16 16 16 15 13 12 10 9 8 8 8 9 11 12 13 15 16 17 17 18 19 19 19 19 20 20 20 19
16 17 17 17 19 19 19 19 19 19 17 16 14 14 15 17 17 17 17 16 14 13 12 10 9 9 10 10 11 12 13 15 16 17 17 18 18 19 19 19 20 20 20 20
16 17 17 18 19 20 19 17 19 18 17 16 15 14 16 18 18 18 17 16 15 14 13 12 11 11 11 11 11 13 14 15 16 16 17 18 18 19 19 19 20 20 21 21
17 17 18 17 19 19 16 16 18 18 17 16 15 15 18 18 18 18 18 17 16 15 14 13 13 12 12 12 12 13 14 14 15 16 17 18 18 19 20 20 20 20 21 21
18 19 19 19 19 17 14 16 17 17 16 16 15 16 17 18 19 19 19 18 17 17 16 15 14 13 13 13 13 14 14 14 15 16 17 18 19 19 20 21 21 21 21 21
19 20 20 19 18 15 14 16 17 16 15 16 16 17 18 19 19 19 19 19 18 18 17 16 15 15 14 14 14 14 14 15 15 16 17 18 19 20 21 22 22 22 22 22
21 22 21 20 19 15 14 17 17 16 14 17 18 18 18 19 18 19 21 20 19 18 18 17 17 16 16 15 15 15 15 15 16 16 17 18 19 21 22 23 23 23 23 22
24 24 24 22 21 17 17 19 18 17 16 19 19 19 19 19 20 21 21 21 20 20 19 19 18 18 17 17 16 16 16 16 16 17 18 19 20 21 23 24 24 23 23 23
27 27 26 26 24 20 20 20 21 20 21 21 21 21 21 21 22 22 22 22 22 22 21 21 20 19 18 18 17 17 17 17 17 18 19 20 21 22 23 24 24 24 24 24
31 30 30 29 27 25 25 25 25 24 23 23 23 23 22 22 23 23 23 23 23 23 22 22 21 20 20 19 19 18 18 18 18 19 20 21 22 23 24 25 25 25 25 25
35 35 35 33 31 30 29 29 29 28 27 26 25 25 25 24 24 24 25 25 24 24 24 23 23 22 22 21 20 20 20 19 20 21 22 23 23 24 25 26 26 26 26 26
38 39 39 38 35 35 34 33 33 32 31 30 29 28 27 27 26 26 26 26 26 26 25 25 24 24 23 23 22 22 21 21 21 22 23 24 25 26 27 27 28 28 27 27
41 42 43 42 40 41 39 37 37 36 35 34 33 32 31 30 29 29 29 28 28 27 27 26 26 26 25 25 24 24 23 23 23 24 24 25 26 27 28 29 29 29 29 28

GEFSCGP_500_meanwind_090.txt.gz
Wind_Speed
25 23 20 19 18 17 15 14 12 13 13 13 13 13 13 12 11 10 9 8 7 7 6 5 4 3 2 3 4 7 9 11 13 14 15 16 17 18 18 18 17 16 15 14
23 21 20 20 18 16 14 12 13 13 12 12 12 12 13 12 11 11 10 9 8 7 7 6 5 3 2 3 4 6 9 11 13 14 15 16 17 18 18 18 18 17 16 14
20 20 19 17 16 15 13 13 13 12 12 11 11 11 13 12 11 10 9 9 9 8 7 7 6 4 3 3 4 6 8 10 12 14 15 16 17 18 18 18 18 17 16 15
20 20 18 16 15 15 13 13 12 12 11 11 11 11 12 13 12 11 10 10 9 9 8 8 7 5 4 3 4 6 8 10 12 14 15 16 17 17 17 18 18 18 17 15
19 18 17 16 15 15 13 12 12 12 12 11 12 12 11 12 12 11 11 10 10 10 9 9 7 5 4 4 5 6 8 10 12 13 15 16 16 17 17 17 18 18 17 16
17 17 16 16 15 14 13 12 12 12 13 12 13 13 11 11 11 11 11 11 11 11 10 9 8 6 5 5 5 6 8 10 11 13 15 16 16 16 17 17 17 18 17 16
15 15 15 14 14 13 12 12 12 13 13 13 13 12 11 12 11 11 11 11 12 11 11 10 8 7 7 6 6 7 8 9 11 13 14 15 16 16 16 16 17 17 17 16
14 14 14 13 13 12 12 12 13 14 14 14 13 12 12 13 12 12 11 12 12 12 11 10 9 8 7 7 7 7 8 9 11 12 14 15 15 16 16 16 16 16 16 16
12 13 13 12 12 11 12 13 13 14 14 14 13 12 13 14 13 13 12 12 13 13 12 11 10 9 8 7 7 8 9 10 11 12 13 14 15 15 15 15 15 16 16 16
11 11 12 12 12 12 12 13 13 14 15 14 13 13 14 15 14 13 13 13 13 14 13 12 11 10 9 8 8 8 9 10 11 12 13 13 14 15 15 15 15 15 15 15
8 9 11 12 12 13 13 14 14 15 16 16 15 13 15 15 15 15 15 15 15 15 14 13 12 11 10 9 8 9 9 10 10 11 12 13 13 14 14 15 15 15 15 15
7 9 11 12 13 14 15 15 16 17 18 17 17 13 15 16 16 16 16 16 16 16 16 15 14 12 11 10 9 9 9 10 10 11 11 12 13 13 14 14 15 15 15 15
8 9 11 13 14 15 17 17 18 19 20 19 18 15 16 17 18 18 18 18 18 18 17 16 15 14 12 11 10 10 10 10 10 10 11 11 12 13 14 14 15 15 15 15
11 12 13 15 17 18 18 19 20 21 21 20 18 17 17 19 19 19 19 19 19 19 18 17 16 15 14 12 11 11 10 10 10 10 10 11 12 12 13 14 15 15 15 15
13 14 15 16 18 18 19 19 20 21 21 21 19 18 17 20 21 20 20 20 19 20 19 18 17 16 15 14 13 12 11 11 10 10 10 11 11 12 13 14 15 15 15 15
14 15 16 16 18 18 18 18 20 20 20 20 20 17 18 20 21 20 20 20 20 20 21 20 19 18 17 15 14 13 12 12 11 11 11 11 11 12 13 14 15 15 15 15
16 17 17 17 19 20 18 18 20 20 20 20 19 18 19 20 21 20 20 20 20 21 21 21 20 19 18 17 16 14 13 13 12 12 11 11 12 12 13 14 15 15 15 15
19 19 20 20 20 21 18 19 20 20 20 21 20 19 20 21 21 21 20 20 20 21 22 21 21 20 19 18 17 16 15 14 13 13 12 12 12 12 13 14 15 15 15 15
21 22 23 23 23 22 20 20 21 21 21 21 20 20 21 21 21 21 21 21 21 22 22 22 21 21 20 19 18 17 16 16 15 14 14 13 13 13 13 14 15 15 16 16
24 25 26 27 27 26 22 23 23 23 23 22 22 21 21 21 21 21 22 22 22 22 23 23 22 22 21 21 20 19 18 17 17 16 15 15 14 14 14 15 15 16 16 16
27 28 29 29 30 29 26 26 26 26 25 24 24 23 23 22 22 22 23 23 23 23 24 24 24 23 23 22 21 20 20 19 18 18 17 16 16 15 16 16 16 16 17 17
31 32 32 32 34 33 30 29 29 29 28 27 27 26 25 25 24 24 24 25 25 25 25 25 25 25 25 24 23 22 22 21 20 19 19 18 17 17 17 17 17 17 18 18
35 36 36 36 36 36 35 34 34 33 32 31 31 30 29 28 27 27 26 26 26 27 27 27 27 27 26 25 25 24 23 23 22 21 21 20 19 18 18 18 18 18 19 19
39 39 40 40 39 39 39 39 38 38 36 35 35 34 33 32 31 30 29 29 29 28 28 28 28 28 28 27 27 26 25 25 24 23 23 22 21 20 20 20 20 20 20 21
42 43 43 44 42 43 43 43 43 42 41 39 38 37 37 36 35 34 32 31 31 31 30 30 30 30 30 29 29 28 27 27 26 26 25 24 23 22 22 21 21 21 21 22
44 46 47 47 46 47 46 46 46 46 45 44 42 41 40 40 39 37 36 34 34 33 33 32 32 32 32 31 31 30 30 29 29 28 27 26 25 24 24 23 23 23 23 23

GEFSCGP_500_meanwind_096.txt.gz
Wind_Speed
21 20 19 17 15 14 12 12 11 11 12 12 12 12 12 12 11 11 12 11 11 11 10 8 8 8 7 8 8 9 10 12 14 15 17 19 20 21 21 21 20 20 20 20
19 18 17 16 16 15 13 13 13 12 12 11 10 11 12 12 12 11 12 12 12 12 11 9 9 8 8 8 8 9 10 12 14 15 17 19 20 21 21 20 20 20 20 20
17 16 17 16 15 14 13 12 12 11 10 9 9 9 10 11 11 12 12 12 12 12 11 10 9 9 8 8 9 9 10 12 14 15 17 18 20 20 20 20 19 19 19 19
17 16 15 15 14 12 12 11 10 9 9 8 8 8 9 12 12 12 12 12 12 12 12 11 10 10 9 9 9 9 11 12 14 15 17 18 19 19 20 19 19 19 19 18
16 15 14 13 13 13 12 9 8 8 8 8 8 9 10 14 13 13 12 12 11 11 12 12 11 10 10 9 9 10 11 12 14 15 16 17 18 19 19 19 18 18 18 18
12 13 12 12 12 11 9 7 7 6 7 7 8 11 11 14 15 14 13 12 11 11 12 12 12 11 11 10 10 10 11 12 14 15 16 17 18 18 18 18 18 18 18 18
8 9 10 9 9 8 7 7 5 5 5 7 9 14 14 16 16 15 14 13 12 12 12 12 12 12 11 11 10 10 11 12 13 14 15 16 17 18 18 18 18 18 18 18
3 5 7 7 7 7 8 7 7 7 6 7 10 14 17 18 17 16 15 14 13 13 12 13 13 13 12 12 11 11 11 12 13 14 14 15 16 17 17 17 18 17 17 17
3 6 6 7 7 8 8 8 9 11 10 9 8 12 19 20 18 16 15 15 15 14 14 13 13 13 13 12 12 12 11 11 12 13 14 15 15 16 17 17 18 18 17 17
7 6 7 7 7 8 10 10 11 12 12 11 9 10 16 21 21 18 16 16 16 15 15 15 14 14 14 14 13 12 12 12 12 13 13 14 15 15 16 17 17 17 17 17
5 4 6 7 7 9 10 11 12 14 14 14 15 14 17 21 22 20 18 17 16 16 15 15 16 16 15 15 14 13 12 12 12 12 13 14 14 15 16 17 17 17 17 17
6 5 6 8 9 11 12 14 15 16 16 17 19 17 18 22 22 20 19 19 18 17 17 16 17 17 17 16 15 14 13 13 12 12 13 13 14 14 15 16 17 17 17 16
5 6 6 8 11 13 14 15 16 17 18 18 19 17 17 22 23 23 22 21 20 18 18 17 17 18 18 17 17 16 15 14 13 13 13 13 14 14 15 15 16 17 16 16
6 7 9 11 13 16 17 18 19 19 20 20 19 19 19 22 24 24 23 23 22 20 19 19 19 19 19 19 18 17 16 15 14 13 13 13 13 14 14 15 15 16 16 16
9 10 11 13 15 18 19 20 20 21 21 22 21 21 21 23 23 23 23 22 22 21 20 20 20 20 20 20 20 19 18 17 16 15 14 14 14 14 14 15 15 16 16 15
11 12 14 14 16 18 19 19 20 21 22 22 23 22 22 23 23 23 23 23 22 21 21 21 21 21 21 21 21 20 19 18 17 16 16 15 15 14 14 15 15 15 15 15
15 16 17 17 18 19 18 19 21 22 23 24 24 24 23 23 23 23 23 23 23 22 22 22 22 22 22 22 22 22 21 20 19 18 17 16 16 15 15 15 15 15 15 15
18 19 21 21 21 22 19 21 23 25 25 25 26 25 25 24 24 24 24 23 23 22 22 22 23 23 23 24 24 24 23 22 21 20 19 18 17 16 16 16 16 15 15 15
20 22 23 24 25 24 23 24 25 26 27 27 27 26 26 25 25 26 25 24 23 23 23 23 24 24 25 25 25 25 25 24 23 22 21 20 19 18 17 17 16 16 16 15
25 25 27 27 28 29 28 27 27 28 30 30 29 28 27 27 27 28 27 27 26 25 25 24 25 26 27 27 27 27 26 26 24 24 23 22 21 20 19 18 18 17 17 16
30 30 30 31 31 32 33 32 32 32 34 34 33 32 32 30 30 30 30 29 28 28 27 27 27 27 28 29 29 29 28 28 27 26 25 24 22 22 21 20 19 19 18 18
32 34 34 35 36 36 37 37 36 38 39 39 38 37 36 35 34 33 32 32 31 31 30 29 29 29 30 31 31 30 30 30 30 29 27 26 25 24 23 22 21 21 20 19
36 37 39 39 40 40 41 42 43 43 43 43 43 42 41 40 38 37 36 35 34 34 33 33 32 31 31 32 32 32 32 32 32 31 30 29 27 26 25 24 24 23 22 21
40 42 43 43 42 43 44 46 47 46 47 47 46 45 45 44 42 40 39 39 38 37 37 36 35 34 33 33 33 33 33 34 33 33 32 31 30 28 28 27 26 25 24 24
44 45 46 46 46 46 47 49 50 50 49 49 49 49 48 47 46 44 43 42 41 40 40 40 39 38 37 36 36 35 35 35 35 34 34 33 32 31 30 29 28 27 26 26
46 48 49 49 49 50 51 52 52 53 53 53 52 52 51 51 50 48 47 46 45 44 43 43 42 41 40 40 39 38 38 37 37 37 36 35 34 33 32 31 30 29 29 28

GEFSCGP_500_meanwind_102.txt.gz
Wind_Speed
21 19 17 15 13 11 10 10 8 7 4 4 4 5 6 7 7 7 7 6 6 7 7 7 7 6 5 6 6 6 8 9 10 12 14 16 17 18 19 19 20 20 20 20
20 18 17 16 13 12 9 7 6 5 3 3 3 3 4 5 6 7 7 6 6 7 7 7 7 7 6 6 6 7 8 9 10 12 14 15 17 18 18 19 19 20 20 20
19 17 16 14 11 9 8 6 5 4 3 3 2 2 3 4 5 6 6 6 6 6 6 7 7 7 7 7 7 7 8 9 10 12 13 15 16 17 17 18 19 19 20 19
19 16 13 11 10 8 6 5 4 3 2 2 1 1 2 3 3 4 6 6 6 6 7 7 7 7 7 7 7 8 9 9 10 11 13 14 15 16 17 17 18 19 19 19
17 15 13 11 9 7 6 5 4 2 1 1 2 2 2 3 4 5 7 8 7 7 7 8 8 8 8 8 8 8 9 10 10 11 12 13 14 15 16 17 18 18 19 19
15 13 11 10 8 7 6 4 3 1 1 2 3 3 3 5 6 7 8 8 8 8 8 8 8 8 8 8 8 9 9 10 10 10 11 12 13 14 15 16 17 18 18 18
14 12 10 8 7 6 5 3 2 1 2 2 4 5 5 7 8 9 10 10 10 9 9 9 9 9 9 9 9 9 10 10 10 10 10 11 12 13 14 15 16 17 18 18
12 11 10 8 6 5 3 2 2 2 3 3 5 6 8 9 10 11 12 11 11 10 9 9 10 10 9 10 10 10 10 10 10 10 10 11 11 12 13 14 15 16 17 17
11 10 8 7 5 3 2 2 3 4 5 6 6 8 10 12 13 14 13 12 12 11 10 10 10 11 11 11 11 11 11 11 10 10 10 10 11 11 12 13 14 15 16 16
8 7 6 5 3 2 2 3 4 5 6 7 8 9 11 13 14 15 14 13 12 11 12 12 12 12 12 12 12 12 12 12 11 11 11 11 11 11 12 13 14 14 15 15
5 5 4 3 3 3 4 5 6 7 8 9 9 10 13 14 16 16 15 14 13 12 12 13 13 13 14 14 14 14 14 13 12 12 12 11 11 11 11 12 13 13 14 14
3 2 2 1 2 4 5 6 7 8 9 10 11 10 14 16 17 17 16 15 14 13 12 13 14 14 15 15 15 15 15 15 14 14 13 13 12 11 11 11 12 12 13 13
1 1 1 2 3 4 6 7 9 10 10 11 13 12 15 16 17 17 17 16 15 14 14 14 14 15 16 16 17 17 17 17 16 16 15 14 13 12 12 11 11 12 12 12
2 3 3 4 6 7 7 9 10 11 12 13 13 14 15 16 17 18 18 18 17 16 15 15 15 16 17 17 18 18 19 19 18 18 17 16 15 14 13 12 12 11 11 12
4 5 6 7 8 9 10 11 12 13 13 14 15 16 17 17 18 18 18 18 18 17 17 17 17 17 18 18 19 20 20 20 20 19 19 18 17 16 15 14 13 12 11 11
7 8 9 9 10 11 12 13 14 15 15 16 17 18 19 19 19 19 19 19 19 18 18 19 18 18 19 19 20 21 21 22 22 21 21 20 19 18 17 16 14 13 12 12
9 10 10 11 12 13 13 14 16 17 17 18 18 19 20 20 20 21 21 21 21 20 21 21 20 20 20 21 21 22 22 23 23 23 23 22 21 20 19 18 16 15 14 13
11 12 13 13 14 15 15 17 18 19 19 20 20 21 22 22 21 22 22 22 23 23 23 23 22 22 22 23 23 23 24 24 25 25 25 25 24 23 22 20 19 18 16 15
14 15 16 17 18 18 18 19 21 22 23 23 24 24 24 25 25 25 25 25 25 25 25 25 25 25 25 25 25 25 25 25 26 26 26 27 27 26 25 23 22 21 19 17
18 18 19 20 22 22 22 22 24 25 26 26 27 27 27 28 29 28 28 28 28 28 28 28 28 28 28 28 28 28 27 28 27 28 28 29 29 28 27 26 25 23 22 20
21 22 23 24 26 27 27 27 27 29 30 30 31 31 31 32 33 33 33 33 32 32 32 32 31 31 31 31 31 31 30 30 30 30 30 31 30 30 30 29 28 26 25 23
24 26 27 28 29 30 32 32 33 34 35 35 36 36 36 36 37 37 38 38 38 37 36 36 35 35 35 35 34 34 34 34 33 33 33 33 32 32 32 32 30 29 28 26
28 30 31 32 33 35 36 36 37 38 39 39 40 41 41 41 41 41 42 42 42 42 41 40 40 39 38 38 38 37 37 37 37 36 35 35 34 34 34 34 33 31 30 29
32 34 35 36 37 38 39 40 40 41 42 43 44 45 45 46 46 46 46 46 47 47 46 46 44 43 42 42 42 41 40 41 40 40 39 38 37 36 36 36 35 34 32 31
35 37 38 39 40 41 42 42 43 44 45 46 47 48 48 49 49 50 50 50 50 51 51 50 49 48 46 46 45 45 45 44 44 43 42 41 40 39 38 37 37 36 34 33
38 40 42 42 43 45 44 45 46 47 48 49 50 51 52 52 53 54 54 54 54 54 54 54 53 52 50 49 48 48 48 48 47 46 45 44 43 42 41 40 39 38 37 35

GEFSCGP_500_meanwind_108.txt.gz
Wind_Speed
23 22 20 18 16 15 13 12 11 9 7 6 6 6 6 6 7 8 9 9 10 10 10 10 10 10 9 8 8 8 7 7 8 9 10 12 13 14 15 16 17 18 19 19
22 20 19 17 15 14 13 11 10 9 8 7 6 5 5 6 6 7 8 9 10 10 10 10 10 9 9 9 9 8 8 8 8 9 10 11 12 14 15 15 16 17 19 19
20 19 17 17 15 14 12 11 10 9 8 7 5 4 4 5 6 7 8 9 9 9 9 10 10 10 10 9 9 9 9 8 8 9 10 11 12 13 14 15 16 17 19 19
21 19 17 15 14 13 11 10 10 9 7 6 4 4 3 4 6 7 8 9 9 9 9 10 10 10 9 9 9 9 9 9 9 9 10 10 11 12 13 14 16 17 18 19
20 18 16 15 14 12 11 10 10 8 7 5 5 4 3 4 6 7 8 9 9 9 9 9 9 10 9 9 10 10 10 10 9 9 10 10 11 12 13 14 15 17 18 18
18 17 16 14 13 12 11 10 9 7 6 5 4 3 4 5 7 7 8 8 9 9 10 9 9 9 10 10 10 10 11 10 10 10 10 11 11 12 13 13 15 16 17 18
18 16 15 13 12 11 10 9 7 6 5 4 3 3 4 6 6 7 7 8 9 10 10 10 9 9 10 10 10 11 11 11 11 11 11 11 11 12 13 13 14 15 16 17
15 15 13 12 11 10 9 8 6 5 3 3 3 4 5 6 7 8 8 9 9 10 10 11 11 10 11 11 11 11 12 12 12 12 12 12 12 12 13 13 14 15 15 16
14 13 12 11 10 9 8 7 5 4 3 3 4 4 6 7 8 9 9 9 10 10 11 11 11 11 12 12 12 12 13 13 13 13 13 13 13 13 13 14 14 14 15 15
11 10 9 8 7 6 5 4 3 3 4 4 4 5 7 8 9 9 9 10 10 11 11 11 12 12 12 13 13 14 14 14 14 14 14 14 14 14 14 14 14 14 14 15
10 8 7 6 5 4 3 3 2 3 3 4 5 6 8 8 9 9 10 11 11 12 12 13 13 13 13 13 14 14 15 15 16 16 15 15 15 15 15 15 15 15 15 14
7 7 5 4 3 2 2 1 2 3 3 4 5 7 8 9 9 10 10 11 11 12 13 13 14 14 15 15 15 15 15 16 17 17 17 17 17 17 17 16 16 16 16 15
5 5 4 2 2 1 1 2 3 4 5 5 6 7 10 10 11 11 12 12 12 13 14 14 15 15 16 16 16 16 16 17 17 18 18 19 19 18 18 18 17 17 17 16
4 4 2 1 1 2 3 4 5 6 6 7 8 9 10 12 12 13 13 13 14 14 15 15 16 16 17 17 18 18 18 18 19 19 19 20 20 20 20 20 19 19 18 18
3 2 2 2 2 3 5 6 6 7 7 8 9 10 11 12 13 14 14 15 15 16 16 16 17 17 18 19 20 20 20 20 21 21 21 22 22 22 22 22 21 21 20 20
2 2 2 3 4 4 5 6 7 8 8 9 10 11 13 13 14 15 16 17 17 18 18 18 18 19 20 20 21 22 22 23 23 23 23 23 23 23 24 24 23 23 23 22
3 4 4 5 6 7 7 8 9 9 10 11 12 13 15 15 16 17 18 19 20 21 21 21 21 21 22 22 23 23 24 25 25 26 26 26 26 26 25 25 25 25 25 24
6 7 7 7 8 9 9 10 11 12 12 13 14 15 16 18 19 20 20 21 22 23 25 25 26 26 27 27 26 27 27 27 27 28 29 29 29 28 28 28 27 27 27 27
9 9 10 10 11 11 12 12 13 14 15 16 17 18 19 20 22 23 24 25 26 27 28 29 30 30 31 31 31 31 31 31 31 31 31 32 32 32 32 31 31 30 30 29
12 12 13 13 14 15 15 16 16 18 18 19 21 22 23 24 25 26 28 29 30 31 32 33 34 34 35 35 35 35 35 35 35 35 35 35 35 35 35 35 34 34 33 32
16 16 17 17 18 19 19 19 21 22 22 23 25 26 27 28 29 30 31 32 34 35 36 37 37 38 39 39 40 40 40 40 39 39 39 39 39 38 38 37 37 37 36 35
19 20 20 21 22 22 23 24 24 26 27 27 28 30 31 32 33 35 36 36 38 39 39 40 41 42 42 43 44 44 44 44 44 44 43 43 42 41 41 40 40 40 39 38
22 23 24 25 25 26 26 27 28 29 30 31 32 33 34 36 37 38 39 40 42 43 44 44 45 45 46 47 48 48 48 49 48 48 47 46 45 45 44 43 43 42 42 41
25 26 27 27 28 29 29 30 31 32 33 34 35 36 38 39 40 41 43 44 46 47 48 48 49 50 51 51 52 52 51 51 51 51 50 49 48 48 47 46 46 46 45 44
28 29 30 30 31 32 32 33 34 36 37 38 40 41 42 43 45 46 48 49 51 52 52 53 54 55 55 56 56 56 56 55 55 54 53 52 52 51 51 50 49 49 48 47
31 32 33 33 34 35 35 37 38 40 41 42 43 45 47 48 50 51 53 54 55 56 57 57 58 58 59 60 60 60 60 59 58 57 56 55 54 53 53 53 52 51 50 50